Flag for Australia Weather past 2 weeks in Sydney, New South Wales, Australia

90 °F


Feels Like: 88 °F
Forecast: 65 / 95 °F
Wind: 16 mph from Northeast

Location: Sydney Airport

Current Time: Nov 25, 2015 at 1:31:38 PM

Latest Report: Nov 25, 2015 at 1:00 PM

Visibility: 10 mi

Pressure: 29.80 "Hg

Humidity: 31%

Dew point: 55 °F

Location of SydneyLocation

Historic Weather in Sydney — Graph


Sydney temperature yesterday

Maximum temperature yesterday: 79 °F (at 12:00 PM)
Minimum temperature yesterday: 64 °F (at 6:30 AM)
Average temperature yesterday: 72 °F

Past Weeks' High & Low Weather Summary

High109 °F (Nov 20, 2:03 PM)100% (Nov 15, 1:00 AM)30.18 "Hg (Nov 15, 1:00 AM)
Low59 °F (Nov 16, 6:00 AM)7% (Nov 20, 2:30 PM)29.65 "Hg (Nov 20, 5:00 PM)
Average71 °F67%29.97 "Hg
* Reported Nov 10 12:00 Noon — Nov 25 12:30 PM, Sydney, Weather by CustomWeather, © 2015

Note: Actual official high and low records may vary slightly from our data, if they occured in-between our weather recording intervals... More about our weather records


Sydney weather history for previous 24 hours

Time TempWeatherWind HumidityBarometerVisibility
12:30 PM
Wed, Nov 25
88 °FPassing clouds.13 mph27%29.80 "HgN/A
12:00 PM90 °FSunny.9 mph15%29.83 "Hg10 mi
11:30 AM88 °FSunny.8 mph22%29.83 "Hg10 mi
10:30 AM82 °FSunny.8 mph42%29.86 "Hg10 mi
9:30 AM79 °FSunny.8 mph51%29.89 "Hg10 mi
9:00 AM77 °FSunny.7 mph57%29.89 "Hg10 mi
8:30 AM73 °FSunny.7 mph61%29.92 "Hg10 mi
8:00 AM72 °FSunny.8 mph65%29.92 "Hg10 mi
7:30 AM70 °FSunny.7 mph69%29.92 "Hg10 mi
7:00 AM68 °FSunny.8 mph73%29.89 "Hg10 mi
6:30 AM68 °FSunny.7 mph73%29.89 "Hg10 mi
6:00 AM66 °FSunny.6 mph78%29.89 "Hg10 mi
5:30 AM66 °FClear.6 mph78%29.86 "Hg10 mi
5:00 AM66 °FClear.6 mph78%29.86 "Hg10 mi
4:30 AM66 °FClear.6 mph83%29.89 "Hg10 mi
4:00 AM66 °FClear.7 mph78%29.89 "Hg10 mi
3:00 AM66 °FClear.5 mph83%29.89 "Hg10 mi
2:30 AM68 °FClear.6 mph78%29.89 "Hg10 mi
2:00 AM68 °FClear.8 mph78%29.89 "Hg10 mi
1:30 AM70 °FClear.9 mph73%29.89 "Hg10 mi
1:00 AM70 °FClear.9 mph73%29.92 "Hg10 mi
12:30 AM70 °FClear.8 mph69%29.92 "Hg10 mi
12:00 AM70 °FClear.7 mph69%29.92 "Hg10 mi
11:30 PM
Tue, Nov 24
72 °FClear.10 mph65%29.95 "Hg10 mi
11:00 PM70 °FPassing clouds.8 mph69%29.95 "HgN/A
10:30 PM72 °FPassing clouds.10 mph65%29.95 "HgN/A
10:00 PM72 °FPassing clouds.16 mph65%29.95 "HgN/A
9:30 PM72 °FPassing clouds.17 mph69%29.92 "HgN/A
9:00 PM72 °FClear.20 mph69%29.92 "Hg10 mi
8:30 PM72 °FClear.20 mph69%29.92 "Hg10 mi
8:00 PM72 °FPassing clouds.22 mph65%29.92 "HgN/A
7:30 PM73 °FPassing clouds.25 mph65%29.89 "HgN/A
7:00 PM73 °FPassing clouds.22 mph61%29.89 "HgN/A
6:30 PM72 °FPassing clouds.23 mph65%29.89 "HgN/A
6:00 PM73 °FPassing clouds.24 mph57%29.89 "HgN/A
5:46 PM77 °FPassing clouds.23 mph51%29.89 "HgN/A
5:00 PM77 °FSunny.26 mph51%29.89 "Hg10 mi
4:30 PM77 °FSunny.26 mph51%29.89 "Hg10 mi
4:00 PM77 °FPassing clouds.24 mph47%29.89 "HgN/A
3:30 PM77 °FPassing clouds.23 mph47%29.92 "HgN/A
2:30 PM77 °FPassing clouds.22 mph51%29.95 "HgN/A
2:00 PM79 °FPassing clouds.22 mph48%29.95 "HgN/A
1:30 PM79 °FPassing clouds.22 mph48%29.95 "HgN/A
1:00 PM77 °FPassing clouds.22 mph51%29.98 "HgN/A
Weather by CustomWeather, © 2015

See weather overviewHow to use our weather pages